Hourly Data Report for June 27, 2021

OTTAWA INTL A
ONTARIO
Current Station Operator: NAVCAN

45°19'00.000" N
75°40'00.000" W
114.90 m
6106001
71628
YOW

Download Data

Hourly Data (June 2021)
Hourly Data Report for June 27, 2021
TIME
LST
Temp Definition
°C
Dew Point Definition
°C
Rel Hum Definition
%
Precip. Amount Definition
mm

Wind Dir Definition
10's deg

Wind Spd Definition
km/h
Visibility Definition
km
Stn Press Definition
kPa
Hmdx Definition


Wind Chill Definition


Weather Definition


00:00 21.8 20.5 92   20 13 24.1 99.92 30   LegendNANA
01:00 22.0 20.1 89   20 16 24.1 99.91 30   Cloudy
02:00 22.1 19.4 84   20 18 24.1 99.87 29   LegendNANA
03:00 22.4 18.8 80   19 19 24.1 99.82 29   LegendNANA
04:00 23.0 18.7 77   20 24 24.1 99.84 30   Cloudy
05:00 22.9 18.8 77   20 19 24.1 99.85 30   LegendNANA
06:00 24.0 18.9 73   20 23 24.1 99.87 31   LegendNANA
07:00 24.5 19.1 72   20 24 24.1 99.86 31   Mostly Cloudy
08:00 26.2 19.1 64   21 32 24.1 99.85 33   LegendNANA
09:00 27.1 19.7 64   22 32 24.1 99.87 34   LegendNANA
10:00 27.8 20.3 63   21 26 24.1 99.91 36   Mainly Clear
11:00 29.6 21.3 60   22 23 24.1 99.91 38   LegendNANA
12:00 29.9 20.9 58   21 26 24.1 99.95 38   LegendNANA
13:00 30.6 20.8 55   20 30 24.1 99.89 39   Mostly Cloudy
14:00 31.1 21.1 55   20 35 24.1 99.87 40   LegendNANA
15:00 30.2 20.6 56   22 39 24.1 99.86 38   LegendNANA
16:00 29.2 21.3 62   22 29 24.1 99.92 38   Mostly Cloudy
17:00 29.3 21.6 62   22 23 24.1 99.94 38   LegendNANA
18:00 28.4 21.5 66   22 26 24.1 99.95 37   LegendNANA
19:00 28.0 20.5 63   23 26 24.1 99.97 36   Mostly Cloudy
20:00 27.5 20.5 65   23 25 24.1 99.98 35   LegendNANA
21:00 26.5 20.7 70   23 19 24.1 100.05 35   LegendNANA
22:00 25.9 20.7 73   23 18 24.1 100.07 34   Clear
23:00 25.6 20.8 74   23 14 24.1 100.09 34   LegendNANA

Notes on Data Quality.

Legend

  • E = Estimated
  • M = Missing
  • NA = Not Available*
  • [empty] = Indicates an unobserved value
Date modified: